This demonstration page uses our WeatherBlox Daily Observations layout. Learn more.

Left ArrowRight Arrow

Hourly Observations for October 25, 2016

Temp ( °F °C ) Dew Point ( °F °C ) Humidity (%) Winds ( mph kmh ) Pressure ( in mb ) Visibility ( mi km ) Precip ( " mm )
12:53 am 00:53 Clear 67 19.4 58 14.4 73 73 SE 8 13 30.06 1018 10 16 0.00 0.00
1:53 am 01:53 Clear 65 18.3 58 14.4 78 78 SE 8 13 30.05 1018 10 16 0.00 0.00
2:53 am 02:53 Clear 66 18.9 58 14.4 75 75 SE 9 15 30.03 1017 10 16 0.00 0.00
3:53 am 03:53 Clear 65 18.3 58 14.4 78 78 ESE 12 19 30.00 1016 10 16 0.00 0.00
4:53 am 04:53 Clear 65 18.3 59 15 81 81 SE 12 19 29.98 1015 10 16 0.00 0.00
5:53 am 05:53 Clear 64 17.8 59 15 84 84 ESE 8 13 29.97 1015 10 16 0.00 0.00
6:53 am 06:53 Clear 64 17.8 59 15 84 84 SE 9 15 29.98 1015 10 16 0.00 0.00
7:53 am 07:53 Clear 62 16.7 59 15 90 90 SE 3 6 30.01 1016 10 16 0.00 0.00
8:53 am 08:53 Sunny 63 17.2 59 15 87 87 ESE 5 7 30.03 1017 10 16 0.00 0.00
9:53 am 09:53 Sunny 66 18.9 59 15 78 78 SE 10 17 30.04 1017 10 16 0.00 0.00
10:53 am 10:53 Sunny 69 20.6 59 15 70 70 SE 9 15 30.04 1017 10 16 0.00 0.00
11:53 am 11:53 Sunny 74 23.3 59 15 60 60 SE 10 17 30.03 1017 10 16 0.00 0.00
12:53 pm 12:53 Sunny 77 25 59 15 54 54 SE 8 13 30.01 1016 10 16 0.00 0.00
1:53 pm 13:53 Sunny 81 27.2 57 13.9 44 44 VRB 6 9 29.97 1015 10 16 0.00 0.00
2:53 pm 14:53 Sunny 83 28.3 57 13.9 41 41 VRB 6 9 29.93 1014 10 16 0.00 0.00
3:53 pm 15:53 Sunny 85 29.4 55 12.8 36 36 SSE 6 9 29.90 1013 10 16 0.00 0.00
4:53 pm 16:53 Sunny 86 30 56 13.3 36 36 ESE 9 15 29.89 1012 10 16 0.00 0.00
5:53 pm 17:53 Sunny 85 29.4 56 13.3 37 37 SE 9 15 29.89 1012 10 16 0.00 0.00
6:53 pm 18:53 Sunny 82 27.8 56 13.3 41 41 SE 10 17 29.91 1013 10 16 0.00 0.00
7:53 pm 19:53 Clear 78 25.6 57 13.9 48 48 SE 12 19 29.94 1014 10 16 0.00 0.00
8:53 pm 20:53 Clear 75 23.9 59 15 58 58 SSE 13 20 29.96 1015 10 16 0.00 0.00
9:53 pm 21:53 Clear 72 22.2 60 15.6 66 66 SE 12 19 29.97 1015 10 16 0.00 0.00
10:53 pm 22:53 Clear 69 20.6 60 15.6 73 73 SE 12 19 29.98 1015 10 16 0.00 0.00
11:53 pm 23:53 Clear 68 20 61 16.1 78 78 SE 10 17 29.99 1016 10 16 0.00 0.00

Powered by AerisWeather